FNA505 BIRK-BGCO

Flight info

Callsign FNA505
Flight time N/A
Altitude 25000
Route MYRAR DCT RE
Aircraft BE20/M-SDFGRWY/LB1

Departure

Time 2026-05-09 12:33
Airport Reykjavík Domestic Airport (BIRK)

Arrival

Time N/A
Airport Neerlerit Inaat Airport (BGCO)
Time Latitude Longitude Altitude Speed Heading
2026-05-09 12:27 64.13158 -21.94565 37 ft 0 kts 84°
2026-05-09 12:30 64.13158 -21.94554 37 ft 5 kts 84°
2026-05-09 12:31 64.13157 -21.94450 37 ft 15 kts 102°
2026-05-09 12:31 64.12967 -21.93780 44 ft 42 kts 180°
2026-05-09 12:31 64.12843 -21.93529 39 ft 19 kts 117°
2026-05-09 12:32 64.12777 -21.93264 38 ft 27 kts 113°
2026-05-09 12:32 64.12726 -21.93087 38 ft 10 kts 281°
2026-05-09 12:32 64.12766 -21.93289 39 ft 43 kts 298°
2026-05-09 12:32 64.12995 -21.94351 41 ft 103 kts 297°
2026-05-09 12:33 64.13379 -21.96055 248 ft 130 kts 299°
2026-05-09 12:33 64.13916 -21.97824 721 ft 138 kts 321°
2026-05-09 12:33 64.14927 -21.98338 1001 ft 168 kts
2026-05-09 12:33 64.16093 -21.97538 1402 ft 179 kts 14°
2026-05-09 12:34 64.17296 -21.96852 1876 ft 182 kts
2026-05-09 12:34 64.18558 -21.96617 2345 ft 182 kts 356°
2026-05-09 12:34 64.19845 -21.96727 2822 ft 183 kts 351°
2026-05-09 12:34 64.21111 -21.97023 3303 ft 183 kts 349°
2026-05-09 12:35 64.22379 -21.97397 3778 ft 184 kts 348°
2026-05-09 12:35 64.23640 -21.97817 4245 ft 186 kts 347°
2026-05-09 12:35 64.24923 -21.98267 4725 ft 187 kts 347°
2026-05-09 12:35 64.26118 -21.98712 5172 ft 189 kts 346°
2026-05-09 12:36 64.27421 -21.99193 5637 ft 189 kts 345°
2026-05-09 12:36 64.28727 -21.99669 6125 ft 191 kts 345°
2026-05-09 12:36 64.30044 -22.00141 6609 ft 192 kts 345°
2026-05-09 12:36 64.31366 -22.00615 7063 ft 193 kts 345°
2026-05-09 12:37 64.32696 -22.01092 7530 ft 194 kts 345°
2026-05-09 12:37 64.34026 -22.01570 7993 ft 195 kts 345°
2026-05-09 12:37 64.35369 -22.02054 8460 ft 196 kts 345°
2026-05-09 12:37 64.36714 -22.02538 8952 ft 196 kts 345°
2026-05-09 12:38 64.38063 -22.03026 9442 ft 196 kts 345°
2026-05-09 12:38 64.39411 -22.03514 9933 ft 196 kts 345°
2026-05-09 12:38 64.40763 -22.04003 10405 ft 197 kts 345°
2026-05-09 12:38 64.42098 -22.04488 10842 ft 197 kts 345°
2026-05-09 12:39 64.43453 -22.04979 11294 ft 197 kts 345°
2026-05-09 12:39 64.44806 -22.05470 11750 ft 197 kts 345°
2026-05-09 12:39 64.46159 -22.05962 12212 ft 197 kts 345°
2026-05-09 12:39 64.47513 -22.06455 12685 ft 197 kts 344°
2026-05-09 12:40 64.48868 -22.06949 13166 ft 197 kts 344°
2026-05-09 12:40 64.50223 -22.07443 13653 ft 197 kts 344°
2026-05-09 12:40 64.51582 -22.07939 14140 ft 197 kts 344°
2026-05-09 12:40 64.52938 -22.08435 14577 ft 198 kts 344°
2026-05-09 12:41 64.54292 -22.08930 15013 ft 196 kts 344°
2026-05-09 12:41 64.55631 -22.09417 15458 ft 193 kts 344°
2026-05-09 12:41 64.56941 -22.09893 15916 ft 188 kts 343°
2026-05-09 12:41 64.58225 -22.10361 16365 ft 185 kts 343°
2026-05-09 12:42 64.59485 -22.10824 16829 ft 182 kts 343°
2026-05-09 12:42 64.60731 -22.11282 17324 ft 180 kts 343°
2026-05-09 12:42 64.61957 -22.11735 17809 ft 177 kts 343°
2026-05-09 12:42 64.63168 -22.12182 18294 ft 175 kts 342°
2026-05-09 12:43 64.64365 -22.12624 18752 ft 173 kts 342°
2026-05-09 12:43 64.65549 -22.13059 19191 ft 171 kts 342°
2026-05-09 12:43 64.66717 -22.13487 19619 ft 169 kts 342°
2026-05-09 12:43 64.67865 -22.13909 20057 ft 167 kts 342°
2026-05-09 12:44 64.69003 -22.14328 20510 ft 164 kts 341°
2026-05-09 12:44 64.70123 -22.14741 20966 ft 162 kts 341°
2026-05-09 12:44 64.71221 -22.15107 21426 ft 161 kts 343°
2026-05-09 12:44 64.72346 -22.15377 21890 ft 165 kts 344°
2026-05-09 12:45 64.73500 -22.15619 22372 ft 167 kts 344°
2026-05-09 12:45 64.74669 -22.15856 22856 ft 169 kts 344°
2026-05-09 12:45 64.75852 -22.16099 23296 ft 172 kts 344°
2026-05-09 12:45 64.77057 -22.16356 23743 ft 175 kts 344°
2026-05-09 12:46 64.78281 -22.16621 24138 ft 177 kts 344°
2026-05-09 12:46 64.79520 -22.16890 24532 ft 180 kts 344°
2026-05-09 12:46 64.80770 -22.17169 24888 ft 180 kts 344°
2026-05-09 12:46 64.82019 -22.17439 25149 ft 183 kts 344°
2026-05-09 12:47 64.83294 -22.17719 25184 ft 184 kts 344°
2026-05-09 12:47 64.84577 -22.18002 25203 ft 186 kts 344°
2026-05-09 12:47 64.85872 -22.18290 25210 ft 188 kts 344°
2026-05-09 12:47 64.87177 -22.18582 25209 ft 189 kts 344°
2026-05-09 12:48 64.88491 -22.18873 25207 ft 190 kts 344°
2026-05-09 12:48 64.89807 -22.19165 25207 ft 190 kts 344°
2026-05-09 12:48 64.91118 -22.19455 25209 ft 189 kts 344°
2026-05-09 12:48 64.92415 -22.19745 25219 ft 189 kts 343°
2026-05-09 12:49 64.93744 -22.20042 25212 ft 189 kts 344°
2026-05-09 12:49 64.95037 -22.20332 25215 ft 189 kts 343°
2026-05-09 12:49 64.96353 -22.20629 25214 ft 190 kts 344°
2026-05-09 12:49 64.97667 -22.20926 25210 ft 190 kts 343°
2026-05-09 12:50 64.98981 -22.21221 25214 ft 189 kts 343°
2026-05-09 12:50 65.00292 -22.21517 25216 ft 189 kts 343°
2026-05-09 12:50 65.01603 -22.21813 25215 ft 189 kts 343°
2026-05-09 12:50 65.02913 -22.22109 25213 ft 189 kts 343°
2026-05-09 12:51 65.04218 -22.22404 25212 ft 188 kts 343°
2026-05-09 12:51 65.05525 -22.22699 25209 ft 188 kts 343°
2026-05-09 12:51 65.06828 -22.22996 25211 ft 188 kts 343°
2026-05-09 12:51 65.08132 -22.23292 25211 ft 188 kts 343°
2026-05-09 12:52 65.09432 -22.23588 25211 ft 188 kts 343°
2026-05-09 12:52 65.10732 -22.23884 25211 ft 188 kts 343°
2026-05-09 12:52 65.12031 -22.24180 25212 ft 187 kts 343°
2026-05-09 12:52 65.12889 -22.24375 25211 ft 187 kts 343°
2026-05-09 12:53 65.14186 -22.24672 25213 ft 187 kts 343°
2026-05-09 12:53 65.15484 -22.24969 25209 ft 187 kts 343°
2026-05-09 12:53 65.17196 -22.25359 25210 ft 186 kts 343°
2026-05-09 12:53 65.18489 -22.25657 25221 ft 188 kts 343°
2026-05-09 12:54 65.19789 -22.25958 25205 ft 187 kts 343°
2026-05-09 12:54 65.20667 -22.26160 25218 ft 188 kts 343°
2026-05-09 12:54 65.21972 -22.26461 25203 ft 188 kts 343°
2026-05-09 12:54 65.23258 -22.26755 25208 ft 188 kts 343°
2026-05-09 12:55 65.24561 -22.27055 25215 ft 188 kts 343°
2026-05-09 12:55 65.25866 -22.27357 25233 ft 189 kts 343°
2026-05-09 12:55 65.27178 -22.27659 25217 ft 189 kts 343°
2026-05-09 12:55 65.28485 -22.27960 25220 ft 189 kts 343°
2026-05-09 12:56 65.29793 -22.28261 25208 ft 188 kts 343°
2026-05-09 12:56 65.31100 -22.28561 25213 ft 188 kts 343°
2026-05-09 12:56 65.32403 -22.28862 25210 ft 188 kts 343°
2026-05-09 12:56 65.33700 -22.29161 25210 ft 187 kts 343°
2026-05-09 12:57 65.34995 -22.29460 25212 ft 187 kts 343°
2026-05-09 12:57 65.36287 -22.29759 25212 ft 186 kts 343°
2026-05-09 12:57 65.37576 -22.30059 25212 ft 186 kts 343°
2026-05-09 12:57 65.38862 -22.30359 25212 ft 185 kts 343°
2026-05-09 12:58 65.40145 -22.30658 25210 ft 185 kts 343°
2026-05-09 12:58 65.41424 -22.30956 25211 ft 185 kts 343°
2026-05-09 12:58 65.42706 -22.31256 25212 ft 185 kts 343°
2026-05-09 12:58 65.43988 -22.31557 25212 ft 185 kts 343°
2026-05-09 12:59 65.45271 -22.31858 25212 ft 185 kts 343°
2026-05-09 12:59 65.46556 -22.32159 25212 ft 185 kts 343°
2026-05-09 12:59 65.47838 -22.32459 25243 ft 185 kts 343°
2026-05-09 12:59 65.49119 -22.32760 25231 ft 185 kts 343°
2026-05-09 13:00 65.50396 -22.33058 25218 ft 184 kts 343°
2026-05-09 13:00 65.51675 -22.33358 25219 ft 184 kts 343°
2026-05-09 13:00 65.52952 -22.33659 25214 ft 184 kts 343°
2026-05-09 13:00 65.54232 -22.33960 25214 ft 184 kts 343°
2026-05-09 13:01 65.55508 -22.34263 25210 ft 184 kts 343°
2026-05-09 13:01 65.56770 -22.34559 25211 ft 184 kts 343°
2026-05-09 13:01 65.58050 -22.34862 25231 ft 185 kts 343°
2026-05-09 13:01 65.59338 -22.35170 25227 ft 187 kts 343°
2026-05-09 13:02 65.60634 -22.35481 25221 ft 188 kts 343°
2026-05-09 13:02 65.61934 -22.35789 25210 ft 188 kts 343°
2026-05-09 13:02 65.63236 -22.36094 25211 ft 188 kts 343°
2026-05-09 13:02 65.64535 -22.36402 25217 ft 188 kts 343°
2026-05-09 13:03 65.65840 -22.36712 25216 ft 189 kts 343°
2026-05-09 13:03 65.67148 -22.37023 25212 ft 189 kts 343°
2026-05-09 13:03 65.68456 -22.37332 25210 ft 189 kts 343°
2026-05-09 13:03 65.69763 -22.37643 25213 ft 189 kts 343°
2026-05-09 13:04 65.71073 -22.37954 25209 ft 189 kts 343°
2026-05-09 13:04 65.72380 -22.38264 25208 ft 188 kts 343°
2026-05-09 13:04 65.73682 -22.38575 25212 ft 188 kts 343°
2026-05-09 13:04 65.74982 -22.38885 25207 ft 188 kts 343°
2026-05-09 13:05 65.76282 -22.39195 25212 ft 187 kts 343°
2026-05-09 13:05 65.77581 -22.39507 25214 ft 188 kts 343°
2026-05-09 13:05 65.78880 -22.39820 25211 ft 188 kts 343°
2026-05-09 13:05 65.80165 -22.40129 25217 ft 188 kts 343°
2026-05-09 13:06 65.81465 -22.40442 25213 ft 188 kts 343°
2026-05-09 13:06 65.82769 -22.40758 25214 ft 189 kts 343°
2026-05-09 13:06 65.84077 -22.41075 25214 ft 189 kts 343°
2026-05-09 13:06 65.85390 -22.41391 25215 ft 189 kts 343°
2026-05-09 13:07 65.86702 -22.41709 25208 ft 189 kts 343°
2026-05-09 13:07 65.88008 -22.42021 25207 ft 188 kts 343°
2026-05-09 13:07 65.89309 -22.42333 25208 ft 188 kts 343°
2026-05-09 13:07 65.90609 -22.42646 25213 ft 187 kts 343°
2026-05-09 13:08 65.91904 -22.42960 25228 ft 187 kts 343°
2026-05-09 13:08 65.93204 -22.43269 25216 ft 188 kts 344°
2026-05-09 13:08 65.94523 -22.43411 25221 ft 191 kts 347°
2026-05-09 13:08 65.95848 -22.43428 25217 ft 191 kts 347°
2026-05-09 13:09 65.97182 -22.43413 25212 ft 191 kts 348°
2026-05-09 13:09 65.98516 -22.43402 25218 ft 191 kts 347°
2026-05-09 13:09 65.99848 -22.43405 25217 ft 191 kts 347°
2026-05-09 13:09 66.01163 -22.43421 25222 ft 191 kts 347°
2026-05-09 13:10 66.02494 -22.43448 25221 ft 192 kts 347°
2026-05-09 13:10 66.03828 -22.43482 25218 ft 192 kts 347°
2026-05-09 13:10 66.05160 -22.43516 25222 ft 191 kts 347°
2026-05-09 13:10 66.06494 -22.43553 25231 ft 192 kts 347°
2026-05-09 13:11 66.07836 -22.43595 25216 ft 193 kts 347°
2026-05-09 13:11 66.09172 -22.43633 25194 ft 191 kts 347°
2026-05-09 13:11 66.10499 -22.43667 25209 ft 190 kts 347°
2026-05-09 13:11 66.11820 -22.43704 25215 ft 190 kts 347°
2026-05-09 13:12 66.13145 -22.43748 25228 ft 191 kts 347°
2026-05-09 13:12 66.14476 -22.43791 25227 ft 192 kts 347°
2026-05-09 13:12 66.15814 -22.43833 25216 ft 192 kts 347°
2026-05-09 13:12 66.17152 -22.43874 25215 ft 192 kts 347°
2026-05-09 13:13 66.18490 -22.43913 25224 ft 192 kts 347°
2026-05-09 13:13 66.19835 -22.43954 25227 ft 193 kts 347°
2026-05-09 13:13 66.21180 -22.43994 25207 ft 193 kts 347°
2026-05-09 13:13 66.22501 -22.44031 25213 ft 193 kts 347°
2026-05-09 13:14 66.23840 -22.44069 25219 ft 192 kts 347°
2026-05-09 13:14 66.25178 -22.44111 25237 ft 193 kts 347°
2026-05-09 13:16 66.34544 -22.44397 25222 ft 193 kts 347°
2026-05-09 13:16 66.35892 -22.44437 25214 ft 193 kts 347°
2026-05-09 13:16 66.37231 -22.44476 25217 ft 192 kts 347°
2026-05-09 13:16 66.38571 -22.44515 25232 ft 192 kts 347°
2026-05-09 13:17 66.39908 -22.44555 25222 ft 192 kts 347°
2026-05-09 13:17 66.41249 -22.44595 25228 ft 192 kts 347°
2026-05-09 13:17 66.42589 -22.44636 25276 ft 193 kts 347°
2026-05-09 13:17 66.43933 -22.44680 25247 ft 193 kts 347°
2026-05-09 13:18 66.45261 -22.44719 25232 ft 193 kts 347°
2026-05-09 13:18 66.46614 -22.44756 25231 ft 192 kts 347°
2026-05-09 13:18 66.47925 -22.44794 25224 ft 191 kts 347°
2026-05-09 13:18 66.49249 -22.44833 25223 ft 190 kts 347°
2026-05-09 13:19 66.50567 -22.44872 25224 ft 189 kts 347°
2026-05-09 13:19 66.51881 -22.44913 25224 ft 189 kts 347°
2026-05-09 13:19 66.53192 -22.44954 25225 ft 188 kts 347°
2026-05-09 13:19 66.54503 -22.44996 25225 ft 188 kts 347°
2026-05-09 13:20 66.55812 -22.45037 25223 ft 188 kts 347°
2026-05-09 13:20 66.57119 -22.45078 25225 ft 188 kts 347°
2026-05-09 13:20 66.58424 -22.45119 25230 ft 188 kts 347°
2026-05-09 13:20 66.59733 -22.45161 25246 ft 188 kts 346°
2026-05-09 13:21 66.61041 -22.45203 25236 ft 188 kts 346°
2026-05-09 13:21 66.62350 -22.45244 25234 ft 188 kts 346°
2026-05-09 13:21 66.63659 -22.45284 25232 ft 188 kts 346°
2026-05-09 13:21 66.64966 -22.45324 25233 ft 188 kts 346°
2026-05-09 13:22 66.66273 -22.45365 25231 ft 188 kts 346°
2026-05-09 13:22 66.67581 -22.45406 25231 ft 188 kts 346°
2026-05-09 13:22 66.68888 -22.45446 25235 ft 188 kts 346°
2026-05-09 13:23 66.74100 -22.45609 25234 ft 188 kts 346°
2026-05-09 13:23 66.75406 -22.45649 25232 ft 188 kts 346°
2026-05-09 13:24 66.76714 -22.45690 25234 ft 188 kts 346°
2026-05-09 13:24 66.78019 -22.45731 25236 ft 188 kts 346°
2026-05-09 13:24 66.79324 -22.45772 25234 ft 188 kts 346°
2026-05-09 13:24 66.80631 -22.45813 25235 ft 188 kts 346°
2026-05-09 13:25 66.81935 -22.45854 25230 ft 188 kts 346°
2026-05-09 13:25 66.83243 -22.45895 25231 ft 188 kts 346°
2026-05-09 13:25 66.85856 -22.45978 25230 ft 188 kts 346°
2026-05-09 13:26 66.87163 -22.46019 25235 ft 188 kts 346°
2026-05-09 13:26 66.88456 -22.46060 25233 ft 188 kts 346°
2026-05-09 13:26 66.89764 -22.46101 25234 ft 187 kts 346°
2026-05-09 13:26 66.91070 -22.46142 25235 ft 188 kts 346°
2026-05-09 13:27 66.92375 -22.46184 25233 ft 188 kts 346°
2026-05-09 13:27 66.93679 -22.46226 25234 ft 188 kts 346°
2026-05-09 13:27 66.94986 -22.46267 25255 ft 188 kts 346°
2026-05-09 13:27 66.96294 -22.46310 25246 ft 188 kts 346°
2026-05-09 13:28 66.97604 -22.46352 25235 ft 188 kts 346°
2026-05-09 13:28 66.98914 -22.46393 25243 ft 188 kts 346°
2026-05-09 13:28 67.00220 -22.46434 25239 ft 188 kts 346°
2026-05-09 13:28 67.01529 -22.46475 25238 ft 188 kts 346°
2026-05-09 13:29 67.02836 -22.46517 25238 ft 188 kts 346°
2026-05-09 13:29 67.04142 -22.46559 25240 ft 188 kts 346°
2026-05-09 13:29 67.05449 -22.46600 25240 ft 188 kts 346°
2026-05-09 13:29 67.06755 -22.46642 25235 ft 188 kts 346°
2026-05-09 13:30 67.08061 -22.46685 25243 ft 188 kts 346°
2026-05-09 13:30 67.09362 -22.46727 25240 ft 188 kts 346°
2026-05-09 13:30 67.10627 -22.46767 25241 ft 188 kts 346°
2026-05-09 13:30 67.11914 -22.46809 25240 ft 188 kts 346°
2026-05-09 13:31 67.13223 -22.46851 25241 ft 188 kts 346°
2026-05-09 13:31 67.14531 -22.46894 25244 ft 188 kts 346°
2026-05-09 13:31 67.15838 -22.46936 25245 ft 188 kts 346°
2026-05-09 13:31 67.17144 -22.46978 25244 ft 188 kts 346°
2026-05-09 13:32 67.18453 -22.47020 25243 ft 188 kts 346°
2026-05-09 13:32 67.21068 -22.47105 25246 ft 188 kts 346°
2026-05-09 13:32 67.22366 -22.47148 25242 ft 188 kts 346°
2026-05-09 13:33 67.23661 -22.47190 25245 ft 188 kts 346°
2026-05-09 13:33 67.24971 -22.47231 25242 ft 188 kts 346°
2026-05-09 13:33 67.26278 -22.47274 25247 ft 188 kts 346°
2026-05-09 13:33 67.27585 -22.47317 25245 ft 188 kts 346°
2026-05-09 13:34 67.28890 -22.47360 25311 ft 188 kts 346°
2026-05-09 13:34 67.30200 -22.47403 25292 ft 188 kts 346°
2026-05-09 13:34 67.31510 -22.47446 25269 ft 188 kts 346°
2026-05-09 13:34 67.32811 -22.47486 25258 ft 187 kts 345°
2026-05-09 13:35 67.34109 -22.47526 25254 ft 186 kts 345°
2026-05-09 13:35 67.35402 -22.47566 25252 ft 185 kts 345°
2026-05-09 13:35 67.36688 -22.47608 25251 ft 185 kts 345°
2026-05-09 13:35 67.37958 -22.47651 25250 ft 184 kts 345°
2026-05-09 13:36 67.39239 -22.47693 25248 ft 184 kts 345°
2026-05-09 13:36 67.40517 -22.47736 25249 ft 184 kts 345°
2026-05-09 13:36 67.41797 -22.47780 25250 ft 184 kts 345°
2026-05-09 13:36 67.43073 -22.47823 25250 ft 183 kts 345°
2026-05-09 13:37 67.44352 -22.47867 25254 ft 183 kts 345°
2026-05-09 13:37 67.45628 -22.47910 25253 ft 183 kts 345°
2026-05-09 13:37 67.46903 -22.47952 25253 ft 183 kts 345°
2026-05-09 13:37 67.48180 -22.47995 25253 ft 183 kts 345°
2026-05-09 13:38 67.49455 -22.48038 25249 ft 183 kts 345°
2026-05-09 13:38 67.50302 -22.48065 25249 ft 183 kts 345°
2026-05-09 13:38 67.51583 -22.48108 25250 ft 183 kts 345°
2026-05-09 13:38 67.52854 -22.48151 25250 ft 183 kts 345°
2026-05-09 13:39 67.54129 -22.48194 25249 ft 183 kts 345°
2026-05-09 13:39 67.55406 -22.48237 25250 ft 183 kts 345°
2026-05-09 13:39 67.56682 -22.48279 25250 ft 183 kts 345°
2026-05-09 13:39 67.57958 -22.48322 25258 ft 183 kts 345°
2026-05-09 13:40 67.59233 -22.48364 25258 ft 183 kts 345°
2026-05-09 13:40 67.60507 -22.48407 25258 ft 183 kts 345°
2026-05-09 13:40 67.61784 -22.48450 25258 ft 183 kts 345°
2026-05-09 13:40 67.63060 -22.48493 25258 ft 183 kts 345°
2026-05-09 13:41 67.64321 -22.48535 25261 ft 183 kts 345°
2026-05-09 13:41 67.65602 -22.48580 25276 ft 184 kts 345°
2026-05-09 13:41 67.66883 -22.48625 25268 ft 184 kts 345°
2026-05-09 13:41 67.68165 -22.48669 25264 ft 184 kts 345°
2026-05-09 13:42 67.69448 -22.48711 25264 ft 184 kts 345°
2026-05-09 13:42 67.70729 -22.48753 25262 ft 184 kts 345°
2026-05-09 13:42 67.72011 -22.48796 25266 ft 184 kts 345°
2026-05-09 13:42 67.73291 -22.48839 25267 ft 184 kts 345°
2026-05-09 13:43 67.74571 -22.48882 25268 ft 184 kts 345°
2026-05-09 13:43 67.75852 -22.48925 25267 ft 184 kts 345°
2026-05-09 13:43 67.77132 -22.48969 25267 ft 184 kts 345°
2026-05-09 13:43 67.78413 -22.49013 25266 ft 184 kts 345°
2026-05-09 13:44 67.79694 -22.49057 25263 ft 184 kts 345°
2026-05-09 13:44 67.80973 -22.49101 25265 ft 184 kts 345°
2026-05-09 13:44 67.82253 -22.49144 25265 ft 184 kts 345°
2026-05-09 13:44 67.83526 -22.49188 25266 ft 184 kts 345°
2026-05-09 13:45 67.84812 -22.49232 25264 ft 184 kts 345°
2026-05-09 13:45 67.86092 -22.49276 25266 ft 184 kts 345°
2026-05-09 13:45 67.87371 -22.49320 25266 ft 184 kts 345°
2026-05-09 13:45 67.88651 -22.49363 25266 ft 184 kts 345°
2026-05-09 13:46 67.89931 -22.49407 25266 ft 184 kts 345°
2026-05-09 13:46 67.91210 -22.49452 25266 ft 184 kts 345°
2026-05-09 13:46 67.92490 -22.49496 25266 ft 184 kts 345°
2026-05-09 13:46 67.93769 -22.49540 25266 ft 184 kts 345°
2026-05-09 13:47 67.95049 -22.49584 25263 ft 184 kts 345°
2026-05-09 13:47 67.96328 -22.49628 25266 ft 184 kts 345°
2026-05-09 13:47 67.97606 -22.49673 25266 ft 184 kts 345°
2026-05-09 13:47 67.98885 -22.49717 25266 ft 184 kts 345°
2026-05-09 13:48 68.00148 -22.49761 25278 ft 184 kts 345°
2026-05-09 13:48 68.01431 -22.49807 25270 ft 185 kts 345°
2026-05-09 13:48 68.02717 -22.49854 25267 ft 185 kts 345°
2026-05-09 13:48 68.04005 -22.49899 25265 ft 185 kts 345°
2026-05-09 13:49 68.05296 -22.49943 25264 ft 185 kts 345°
2026-05-09 13:49 68.06584 -22.49987 25264 ft 185 kts 345°
2026-05-09 13:49 68.07872 -22.50031 25264 ft 185 kts 345°
2026-05-09 13:49 68.09160 -22.50076 25264 ft 185 kts 345°
2026-05-09 13:50 68.10449 -22.50121 25264 ft 185 kts 345°
2026-05-09 13:50 68.11735 -22.50166 25265 ft 185 kts 345°
2026-05-09 13:50 68.13021 -22.50210 25266 ft 185 kts 345°
2026-05-09 13:50 68.14309 -22.50255 25266 ft 185 kts 345°
2026-05-09 13:51 68.15597 -22.50301 25266 ft 185 kts 345°
2026-05-09 13:51 68.16885 -22.50346 25336 ft 185 kts 346°
2026-05-09 13:51 68.18174 -22.50394 25298 ft 186 kts 346°
2026-05-09 13:51 68.19465 -22.50439 25281 ft 185 kts 346°
2026-05-09 13:52 68.20753 -22.50483 25275 ft 185 kts 346°
2026-05-09 13:52 68.22038 -22.50526 25272 ft 184 kts 346°
2026-05-09 13:52 68.23319 -22.50571 25270 ft 184 kts 346°
2026-05-09 13:52 68.24599 -22.50615 25269 ft 184 kts 346°
2026-05-09 13:53 68.25875 -22.50660 25269 ft 183 kts 346°
2026-05-09 13:53 68.27152 -22.50706 25269 ft 183 kts 346°
2026-05-09 13:53 68.28425 -22.50753 25272 ft 183 kts 346°
2026-05-09 13:53 68.29698 -22.50798 25272 ft 183 kts 346°
2026-05-09 13:54 68.30970 -22.50844 25272 ft 183 kts 346°
2026-05-09 13:54 68.32226 -22.50890 25272 ft 183 kts 346°
2026-05-09 13:54 68.33500 -22.50936 25272 ft 183 kts 346°
2026-05-09 13:54 68.34771 -22.50982 25274 ft 183 kts 346°
2026-05-09 13:55 68.36044 -22.51028 25282 ft 183 kts 345°
2026-05-09 13:55 68.37320 -22.51074 25278 ft 183 kts 345°
2026-05-09 13:55 68.38598 -22.51120 25276 ft 183 kts 346°
2026-05-09 13:55 68.39871 -22.51166 25275 ft 183 kts 346°
2026-05-09 13:56 68.41147 -22.51211 25275 ft 183 kts 345°
2026-05-09 13:56 68.42422 -22.51257 25274 ft 183 kts 345°
2026-05-09 13:56 68.43696 -22.51303 25274 ft 183 kts 345°
2026-05-09 13:56 68.44971 -22.51348 25274 ft 183 kts 345°
2026-05-09 13:57 68.46249 -22.51394 25272 ft 183 kts 345°
2026-05-09 13:57 68.47521 -22.51440 25273 ft 183 kts 345°
2026-05-09 13:57 68.48797 -22.51487 25274 ft 183 kts 345°
2026-05-09 13:57 68.50072 -22.51533 25274 ft 183 kts 345°
2026-05-09 13:58 68.51331 -22.51579 25274 ft 183 kts 346°
2026-05-09 13:58 68.52605 -22.51625 25274 ft 183 kts 345°
2026-05-09 13:58 68.53879 -22.51671 25274 ft 183 kts 345°
2026-05-09 13:58 68.55154 -22.51717 25274 ft 183 kts 345°
2026-05-09 13:59 68.56428 -22.51764 25274 ft 183 kts 345°
2026-05-09 13:59 68.57702 -22.51811 25277 ft 183 kts 345°
2026-05-09 13:59 68.58977 -22.51858 25277 ft 183 kts 345°
2026-05-09 13:59 68.60250 -22.51904 25277 ft 183 kts 345°
2026-05-09 14:00 68.61526 -22.51951 25277 ft 183 kts 345°
2026-05-09 14:00 68.61956 -22.51967 25278 ft 183 kts 345°
2026-05-09 14:00 68.64072 -22.52044 25279 ft 183 kts 345°
2026-05-09 14:00 68.65344 -22.52091 25279 ft 183 kts 345°
2026-05-09 14:01 68.66616 -22.52138 25279 ft 183 kts 345°
2026-05-09 14:01 68.67891 -22.52185 25278 ft 183 kts 345°
2026-05-09 14:01 68.69165 -22.52232 25278 ft 183 kts 345°
2026-05-09 14:01 68.70439 -22.52279 25277 ft 183 kts 345°
2026-05-09 14:02 68.71717 -22.52328 25297 ft 184 kts 345°
2026-05-09 14:02 68.72996 -22.52376 25286 ft 184 kts 345°
2026-05-09 14:02 68.74276 -22.52423 25282 ft 184 kts 345°
2026-05-09 14:02 68.75556 -22.52470 25279 ft 184 kts 346°
2026-05-09 14:03 68.76833 -22.52517 25278 ft 184 kts 345°
2026-05-09 14:03 68.78112 -22.52563 25277 ft 183 kts 345°
2026-05-09 14:03 68.79388 -22.52609 25277 ft 183 kts 345°
2026-05-09 14:03 68.80660 -22.52657 25277 ft 183 kts 345°
2026-05-09 14:04 68.81936 -22.52705 25276 ft 183 kts 345°
2026-05-09 14:04 68.83210 -22.52753 25276 ft 183 kts 345°
2026-05-09 14:04 68.84485 -22.52800 25277 ft 183 kts 345°
2026-05-09 14:04 68.85742 -22.52848 25277 ft 183 kts 345°
2026-05-09 14:05 68.87016 -22.52896 25276 ft 183 kts 345°
2026-05-09 14:05 68.88292 -22.52944 25277 ft 183 kts 345°
2026-05-09 14:05 68.89566 -22.52992 25277 ft 183 kts 345°
2026-05-09 14:05 68.90844 -22.53040 25277 ft 183 kts 345°
2026-05-09 14:06 68.92120 -22.53089 25279 ft 183 kts 345°
2026-05-09 14:06 68.93396 -22.53137 25278 ft 183 kts 345°
2026-05-09 14:06 68.94670 -22.53184 25277 ft 183 kts 345°
2026-05-09 14:06 68.95946 -22.53232 25277 ft 183 kts 345°
2026-05-09 14:07 68.97220 -22.53280 25272 ft 183 kts 345°
2026-05-09 14:07 68.98496 -22.53328 25273 ft 183 kts 346°
2026-05-09 14:07 68.99769 -22.53377 25274 ft 183 kts 345°
2026-05-09 14:07 69.01042 -22.53425 25274 ft 183 kts 345°
2026-05-09 14:08 69.02317 -22.53473 25275 ft 183 kts 345°
2026-05-09 14:08 69.03590 -22.53522 25275 ft 183 kts 345°
2026-05-09 14:08 69.04864 -22.53571 25274 ft 183 kts 345°
2026-05-09 14:08 69.06139 -22.53620 25341 ft 183 kts 346°
2026-05-09 14:09 69.07419 -22.53671 25326 ft 184 kts 346°
2026-05-09 14:09 69.08704 -22.53722 25301 ft 185 kts 346°
2026-05-09 14:09 69.09986 -22.53770 25288 ft 184 kts 346°
2026-05-09 14:09 69.11265 -22.53816 25282 ft 184 kts 346°
2026-05-09 14:10 69.13811 -22.53908 25274 ft 182 kts 346°
2026-05-09 14:10 69.15080 -22.53957 25274 ft 182 kts 346°
2026-05-09 14:10 69.16347 -22.54006 25274 ft 182 kts 346°
2026-05-09 14:11 69.17610 -22.54055 25276 ft 182 kts 346°
2026-05-09 14:11 69.18873 -22.54104 25275 ft 182 kts 346°
2026-05-09 14:11 69.20137 -22.54154 25275 ft 181 kts 346°
2026-05-09 14:11 69.21382 -22.54204 25275 ft 181 kts 346°
2026-05-09 14:12 69.22644 -22.54253 25274 ft 181 kts 346°
2026-05-09 14:12 69.23905 -22.54301 25274 ft 181 kts 346°
2026-05-09 14:12 69.25167 -22.54351 25274 ft 181 kts 346°
2026-05-09 14:12 69.26428 -22.54400 25274 ft 181 kts 346°
2026-05-09 14:13 69.27690 -22.54449 25274 ft 181 kts 346°
2026-05-09 14:14 69.36507 -22.54794 25272 ft 181 kts 346°
2026-05-09 14:15 69.37766 -22.54843 25272 ft 181 kts 346°
2026-05-09 14:15 69.39025 -22.54893 25272 ft 181 kts 346°
2026-05-09 14:15 69.40285 -22.54943 25272 ft 181 kts 346°
2026-05-09 14:15 69.41544 -22.54993 25272 ft 181 kts 346°
2026-05-09 14:16 69.42790 -22.55042 25296 ft 181 kts 345°
2026-05-09 14:16 69.44055 -22.55093 25284 ft 182 kts 345°
2026-05-09 14:16 69.45319 -22.55144 25279 ft 182 kts 345°
2026-05-09 14:16 69.46586 -22.55194 25276 ft 182 kts 345°
2026-05-09 14:17 69.47851 -22.55243 25274 ft 181 kts 345°
2026-05-09 14:17 69.49113 -22.55292 25274 ft 181 kts 345°
2026-05-09 14:17 69.50377 -22.55342 25274 ft 181 kts 345°
2026-05-09 14:17 69.51622 -22.55391 25274 ft 181 kts 345°
2026-05-09 14:18 69.52900 -22.55442 25274 ft 181 kts 345°
2026-05-09 14:18 69.54143 -22.55492 25274 ft 181 kts 345°
2026-05-09 14:18 69.55404 -22.55542 25274 ft 181 kts 345°
2026-05-09 14:18 69.56665 -22.55593 25274 ft 181 kts 345°
2026-05-09 14:19 69.57925 -22.55642 25272 ft 181 kts 345°
2026-05-09 14:19 69.59186 -22.55692 25272 ft 181 kts 345°
2026-05-09 14:19 69.60446 -22.55744 25272 ft 181 kts 345°
2026-05-09 14:19 69.61709 -22.55794 25272 ft 181 kts 345°
2026-05-09 14:20 69.62969 -22.55845 25269 ft 181 kts 345°
2026-05-09 14:20 69.64230 -22.55896 25269 ft 181 kts 345°
2026-05-09 14:20 69.65491 -22.55948 25269 ft 181 kts 345°
2026-05-09 14:21 69.68013 -22.56049 25269 ft 181 kts 345°
2026-05-09 14:21 69.69272 -22.56100 25269 ft 181 kts 345°
2026-05-09 14:21 69.70532 -22.56151 25269 ft 181 kts 345°
2026-05-09 14:21 69.71794 -22.56202 25269 ft 181 kts 345°
2026-05-09 14:22 69.73038 -22.56253 25267 ft 181 kts 345°
2026-05-09 14:22 69.74088 -22.56295 25268 ft 181 kts 345°